Tracking 24122 objects as of 9-Dec-2021
HD Live streaming from Space Station
objects crossing your sky now

ORBICRAFT-ZORKIY

Track ORBICRAFT-ZORKIY now!
10-day predictions
ORBICRAFT-ZORKIY is classified as:


NORAD ID: 47960
Int'l Code: 2021-022AE
Perigee: 539.1 km
Apogee: 570.8 km
Inclination: 97.5 °
Period: 95.6 minutes
Semi major axis: 6925 km
RCS: Unknown
Launch date: March 22, 2021
Source: (TBD)
Launch site: TYURATAM MISSILE AND SPACE COMPLEX (TTMTR)

Uplink (MHz):
Downlink (MHz): 437.850/437.950/10465.000
Beacon (MHz):
Mode: 2k4/9k6FSK DVB-S2
Call sign: RS15S
Status: Active

aabbcc
Your satellite tracking list
Your tracking list is empty




NASA's NSSDC Master Catalog

Two Line Element Set (TLE):
1 47960U 21022AE  21342.72430316  .00002082  00000-0  14552-3 0  9993
2 47960  97.5472 241.3541 0022919  77.9068 282.4712 15.06201244 38790
Source of the keplerian elements: AFSPC